DW4685 Weather Reports


Display with metric or nautical units.
time (UTC)temp
F
wind
direction
speed
MPH
gust
MPH
rain 1hr
in
rain 24hr
in
rain mn
in
humidity
%
barometer
mb
20260906201503 85 0 0.0 0.0 0.00 0.00 0.00 71 1014.7
20260906200219 85 0 0.0 0.0 0.00 0.00 0.00 71 1014.8
20260906194504 85 0 0.0 0.0 0.00 0.00 0.00 69 1015.0
20260906193219 85 0 0.0 0.0 0.00 0.00 0.00 71 1015.3
20260906191504 84 0 0.0 0.0 0.00 0.00 0.00 72 1015.3
20260906190218 84 0 0.0 0.0 0.00 0.00 0.00 73 1015.5
20260906184504 83 0 0.0 0.0 0.00 0.00 0.00 73 1015.6
20260906183004 83 0 0.0 0.0 0.00 0.00 0.00 75 1015.8
20260906181717 82 0 0.0 0.0 0.00 0.00 0.00 75 1015.9
20260906180218 82 0 0.0 0.0 0.00 0.00 0.00 76 1016.3
20260906174504 81 0 0.0 0.0 0.00 0.00 0.00 77 1016.6
20260906173004 80 0 0.0 0.0 0.00 0.00 0.00 79 1016.7
20260906171504 78 0 0.0 0.0 0.00 0.00 0.00 80 1016.9
20260906170004 77 0 0.0 0.0 0.00 0.00 0.00 81 1017.1
20260906164504 76 0 0.0 0.0 0.00 0.00 0.00 82 1017.3
20260906163004 75 0 0.0 0.0 0.00 0.00 0.00 84 1017.4
20260906161503 74 0 0.0 0.0 0.00 0.00 0.00 86 1017.5
20260906160005 72 0 0.0 0.0 0.00 0.00 0.00 87 1017.6
20260906154504 70 0 0.0 0.0 0.00 0.00 0.00 90 1017.8
20260906153003 69 0 0.0 0.0 0.00 0.00 0.00 93 1017.7
20260906151504 68 0 0.0 0.0 0.00 0.00 0.00 95 1017.9
20260906150004 67 0 0.0 0.0 0.00 0.00 0.00 95 1017.9
20260906144504 66 0 0.0 0.0 0.00 0.00 0.00 95 1018.0
20260906143003 65 0 0.0 0.0 0.00 0.00 0.00 95 1017.9
20260906141504 64 0 0.0 0.0 0.00 0.00 0.00 95 1017.9
20260906140004 63 0 0.0 0.0 0.00 0.00 0.00 95 1018.1
20260906134503 63 0 0.0 0.0 0.00 0.00 0.00 95 1018.1
20260906133003 63 0 0.0 0.0 0.00 0.00 0.00 94 1018.2
20260906131504 62 0 0.0 0.0 0.00 0.00 0.00 94 1018.1
20260906130218 62 0 0.0 0.0 0.00 0.00 0.00 94 1018.1
20260906124503 62 0 0.0 0.0 0.00 0.00 0.00 94 1018.2
20260906123003 62 0 0.0 0.0 0.00 0.00 0.00 94 1018.2
20260906121719 62 0 0.0 0.0 0.00 0.00 0.00 94 1018.1
20260906120004 62 0 0.0 0.0 0.00 0.00 0.00 94 1018.0
20260906114504 61 0 0.0 0.0 0.00 0.00 0.00 94 1018.0
20260906113003 61 0 0.0 0.0 0.00 0.00 0.00 94 1017.7
20260906111503 61 0 0.0 0.0 0.00 0.00 0.00 94 1017.4
20260906110005 61 0 0.0 0.0 0.00 0.00 0.00 94 1017.4
20260906104504 61 0 0.0 0.0 0.00 0.00 0.00 94 1017.2
20260906103004 61 0 0.0 0.0 0.00 0.00 0.00 94 1017.3
20260906101504 61 0 0.0 0.0 0.00 0.00 0.00 94 1017.3
20260906100004 61 0 0.0 0.0 0.00 0.00 0.00 94 1017.2
20260906094504 60 0 0.0 0.0 0.00 0.00 0.00 94 1017.2
20260906093004 59 0 0.0 0.0 0.00 0.00 0.00 93 1017.3
20260906091503 59 0 0.0 0.0 0.00 0.00 0.00 93 1017.3
20260906090004 59 0 0.0 0.0 0.00 0.00 0.00 93 1017.2
20260906084503 59 0 0.0 0.0 0.00 0.00 0.00 92 1017.1
20260906083218 60 0 0.0 0.0 0.00 0.00 0.00 93 1017.0
20260906081503 60 0 0.0 0.0 0.00 0.00 0.00 93 1016.8
20260906080004 60 0 0.0 0.0 0.00 0.00 0.00 93 1016.8
20260906074505 61 0 0.0 0.0 0.00 0.00 0.00 92 1017.0
20260906073004 61 0 0.0 0.0 0.00 0.00 0.00 93 1017.0
20260906071505 62 0 0.0 0.0 0.00 0.00 0.00 93 1017.2
20260906070004 62 0 0.0 0.0 0.00 0.00 0.00 93 1017.3
20260906064504 62 0 0.0 0.0 0.00 0.00 0.00 93 1017.2
20260906063004 62 0 0.0 0.0 0.00 0.00 0.00 93 1017.4
20260906061504 63 0 0.0 0.0 0.00 0.00 0.00 94 1017.7
20260906060217 62 0 0.0 0.0 0.00 0.00 0.00 94 1017.8
20260906054503 60 0 0.0 0.0 0.00 0.00 0.00 93 1018.0
20260906053004 59 0 0.0 0.0 0.00 0.00 0.00 92 1017.9
20260906051504 59 0 0.0 0.0 0.00 0.00 0.00 92 1018.1
20260906050004 59 0 0.0 0.0 0.00 0.00 0.00 91 1018.1
20260906044718 60 0 0.0 0.0 0.00 0.00 0.00 91 1017.9
20260906043003 60 0 0.0 0.0 0.00 0.00 0.00 91 1017.8
20260906041505 61 0 0.0 0.0 0.00 0.00 0.00 91 1017.7
20260906040004 61 0 0.0 0.0 0.00 0.00 0.00 91 1017.5
20260906034504 62 0 0.0 0.0 0.00 0.00 0.00 91 1017.2
20260906033004 62 0 0.0 0.0 0.00 0.00 0.00 91 1017.0
20260906031504 63 0 0.0 0.0 0.00 0.00 0.00 91 1016.7
20260906030004 63 0 0.0 0.0 0.00 0.00 0.00 91 1016.7
20260906024504 63 0 0.0 0.0 0.00 0.00 0.00 90 1016.8
20260906023004 64 0 0.0 0.0 0.00 0.00 0.00 91 1016.8
20260906021503 64 0 0.0 0.0 0.00 0.00 0.00 90 1016.8
20260906020003 64 0 0.0 0.0 0.00 0.00 0.00 89 1016.7
20260906014504 64 0 0.0 0.0 0.00 0.00 0.00 89 1016.4
20260906013218 65 0 0.0 0.0 0.00 0.00 0.00 87 1016.0
20260906011717 66 0 0.0 0.0 0.00 0.00 0.00 86 1016.0
20260906010004 67 0 0.0 0.0 0.00 0.00 0.00 86 1016.0
20260906004503 68 0 0.0 0.0 0.00 0.00 0.00 85 1016.0
20260906003004 69 0 0.0 0.0 0.00 0.00 0.00 85 1015.9
20260906001504 70 0 0.0 0.0 0.00 0.00 0.00 84 1015.8
20260906000004 70 0 0.0 0.0 0.00 0.00 0.00 84 1015.9
20260905234718 70 0 0.0 0.0 0.00 0.00 0.00 84 1015.8
20260905233217 70 0 0.0 0.0 0.00 0.00 0.00 83 1015.7
20260905231503 71 0 0.0 0.0 0.00 0.00 0.00 80 1015.4
20260905230004 72 0 0.0 0.0 0.00 0.00 0.00 80 1015.2
20260905224718 72 0 0.0 0.0 0.00 0.00 0.00 80 1015.4
20260905223004 73 0 0.0 0.0 0.00 0.00 0.00 79 1015.2
20260905221717 74 0 0.0 0.0 0.00 0.00 0.00 78 1015.3
20260905220004 75 0 0.0 0.0 0.00 0.00 0.00 77 1015.7
20260905214504 74 0 0.0 0.0 0.00 0.00 0.00 78 1015.8
20260905213004 73 0 0.0 0.0 0.00 0.00 0.00 79 1016.1
20260905211503 72 0 0.0 0.0 0.00 0.00 0.00 81 1016.2
20260905210004 71 0 0.0 0.0 0.00 0.00 0.00 81 1016.3
20260905204504 71 0 0.0 0.0 0.00 0.00 0.00 82 1016.5
20260905203003 71 0 0.0 0.0 0.00 0.00 0.00 81 1016.8